User: anonymous   Login
Location: Bourg-d�Oueil
(42.8588°N, 0.4991°E)
Time: 21:05:26
(UTC+00:00)
Language:

Cosmos 1140 Rocket - Orbit

View from above orbital plane
View from above orbital plane
View from above satellite
View from above satellite

Ground track
Ground track

The orbit data is extracted from the following two-line orbital elements,

1 11574U 79089B   21271.56274466  .00000043  00000-0  21638-4 0  9995
2 11574  74.0704 211.0970 0014649  76.3375 283.9411 14.40816786202239
Epoch (UTC): 28 September 2021 13:30:21
Eccentricity: 0.0014649
inclination: 74.0704°
perigee height: 745 km
apogee height: 766 km
right ascension of ascending node: 211.0970°
argument of perigee: 76.3375°
revolutions per day: 14.40816786
mean anomaly at epoch: 283.9411°
orbit number at epoch: 20223

The dashed part of the orbit path shows where the satellite is in the earth's shadow,  

DLR